Tracking 32139 objects as of 17-Nov-2025
HD Live streaming from Space Station
objects crossing your sky now

STARLINK-35172

Track STARLINK-35172 now!
10-day predictions
STARLINK-35172 is classified as:


NORAD ID: 65533
Int'l Code: 2025-200P
Perigee: 555.7 km
Apogee: 557.4 km
Inclination: 97.6 °
Period: 95.6 minutes
Semi major axis: 6927 km
RCS: Unknown
Launch date: September 6, 2025
Source: United States (US)
Launch site: AIR FORCE EASTERN TEST RANGE (AFETR)
Your satellite tracking list
Your tracking list is empty




NASA's NSSDC Master Catalog

Two Line Element Set (TLE):
1 65533U 25200P   25320.61747736  .00015254  00000-0  10582-2 0  9999
2 65533  97.6066  28.2905 0001162  46.3616 313.7707 15.05682231 12116
Source of the keplerian elements: AFSPC